CAPE
0 0 0 0 0 0 0 0 0 0 0 0 0 0 0 0 0 0 4 1 1 6 6 5 7 6 4 2 1 1 4 3 2 2 2 1 4 2
0 0 0 0 0 0 0 0 0 0 0 0 0 0 0 0 0 0 3 0 4 5 3 4 6 7 8 7 1 1 1 5 5 4 4 2 0 2
0 0 0 0 0 0 0 0 0 0 0 0 0 0 0 0 0 1 3 0 4 8 3 4 4 5 5 3 4 5 5 7 6 5 5 5 3 0
0 0 0 0 0 0 0 0 0 0 0 0 0 0 0 0 0 0 4 4 10 5 1 0 0 5 6 6 7 6 5 5 7 4 5 5 4 3
0 0 0 0 0 0 0 0 0 0 0 0 0 0 0 0 0 0 2 1 0 4 9 4 1 0 0 5 8 7 6 5 7 6 3 4 4 4
0 0 0 0 0 0 0 0 0 0 0 0 0 0 0 0 0 0 0 1 0 0 0 5 0 1 2 2 8 8 5 5 4 9 5 2 3 4
0 0 0 0 0 0 0 0 0 0 0 0 0 0 0 0 0 0 0 0 0 0 0 0 3 0 0 1 2 5 4 4 1 1 8 5 4 6
0 0 0 0 0 0 0 0 0 0 0 0 0 0 0 0 0 0 0 0 0 0 0 0 0 0 0 0 2 2 5 5 4 1 0 4 3 3
0 0 0 0 0 0 0 0 0 0 0 0 0 0 0 0 0 0 0 0 0 0 0 0 0 0 0 0 3 0 1 2 7 3 2 0 2 3
0 0 0 0 0 0 0 0 0 0 0 0 0 0 0 0 0 0 0 0 0 0 0 0 0 0 0 0 0 6 1 1 2 3 3 2 2 2
0 0 0 0 0 0 0 0 0 0 0 0 0 1 1 0 0 0 0 0 0 0 0 0 0 0 0 0 0 3 0 2 0 10 2 3 0 1
0 0 0 0 0 0 0 0 0 0 0 0 0 0 2 0 0 0 0 0 0 0 0 0 0 0 0 0 0 0 0 0 0 0 9 7 0 0
0 0 0 0 0 0 0 0 0 0 0 1 0 0 0 0 0 0 0 0 0 0 0 0 0 0 0 0 0 0 0 0 0 0 1 1 7 0
0 0 0 0 0 0 0 0 0 0 0 0 0 0 0 0 0 0 0 0 0 0 0 0 0 0 0 0 0 0 0 0 0 0 0 3 0 1
0 0 0 0 0 0 0 0 0 0 0 0 0 0 0 0 0 0 0 0 0 0 0 0 0 0 0 0 0 0 0 0 0 0 0 1 0 0
0 0 0 0 0 0 0 0 0 0 0 0 0 0 0 0 0 0 0 0 0 0 0 0 0 0 0 0 0 0 0 0 0 0 0 0 0 0
0 0 0 0 0 0 0 0 0 0 0 0 0 0 0 0 0 0 0 0 0 0 0 0 0 0 0 0 0 0 0 0 0 0 0 0 0 0
0 0 0 0 0 0 0 0 0 0 0 0 0 0 0 0 0 0 0 0 0 0 0 0 0 0 0 0 0 0 0 0 0 0 0 0 0 0
0 0 0 0 0 0 0 0 0 0 0 0 0 0 0 0 0 0 0 0 0 0 0 0 0 0 0 0 0 0 0 0 0 0 0 0 0 0
0 0 0 0 0 0 0 0 0 0 0 0 0 0 0 0 0 0 0 0 0 0 0 0 0 0 0 0 0 0 0 0 0 0 0 0 0 0
0 0 0 0 0 0 0 0 0 0 0 0 0 0 0 0 0 0 0 0 0 0 0 0 0 0 0 0 0 0 0 0 0 0 0 0 0 0
0 0 0 0 0 0 0 0 0 0 0 0 0 0 0 0 0 0 0 0 0 0 0 0 0 0 0 0 0 0 0 0 0 0 0 0 0 0
0 0 0 0 0 0 0 0 0 0 0 0 0 0 0 0 0 0 0 0 0 0 0 0 0 0 0 0 0 0 0 0 0 0 0 0 0 0
CIN
0 0 0 0 0 0 0 0 0 0 0 0 0 0 0 0 0 0 -8 0 0 -1 0 0 0 0 0 0 0 0 0 0 0 0 0 0 0 0
0 0 0 0 0 0 0 0 0 0 0 0 0 0 0 0 0 -1 -1 0 0 0 0 0 0 0 0 0 0 0 0 0 0 0 0 0 0 0
0 0 0 0 0 0 0 0 0 0 0 0 0 0 0 0 0 -2 -1 0 0 0 -1 0 0 0 0 0 0 0 0 0 0 0 0 0 0 0
0 0 0 0 0 0 0 0 0 0 0 0 0 0 0 0 0 -2 -1 -1 0 0 -1 0 0 0 0 0 0 0 0 0 0 0 0 0 0 0
0 0 0 0 0 0 0 0 0 0 0 0 0 0 0 0 0 0 -1 -5 0 0 0 0 0 0 0 0 0 0 0 0 0 0 0 0 0 0
0 0 0 0 0 0 0 0 0 0 0 0 0 0 0 0 0 0 0 -5 0 0 0 0 0 0 0 0 0 0 0 0 0 0 0 0 0 0
0 0 0 0 0 0 0 0 0 0 0 0 0 0 0 0 0 0 0 0 0 0 0 0 0 0 0 0 0 0 0 0 0 0 0 0 0 0
0 0 0 0 0 0 0 0 0 0 0 0 0 0 0 0 0 0 0 0 -1 0 0 0 0 0 0 0 -1 0 0 0 0 0 0 0 0 0
0 0 0 0 0 0 0 0 0 0 0 0 0 0 0 0 0 0 0 0 0 0 0 0 0 0 0 0 0 0 -1 0 0 0 0 0 0 0
0 0 0 0 0 0 0 0 0 0 0 0 0 0 0 0 0 0 0 0 0 0 0 0 0 0 0 0 0 -1 -1 -1 0 0 0 0 0 0
0 0 0 0 0 0 0 0 0 0 0 0 0 -1 0 -1 0 0 0 0 0 0 0 0 0 0 0 0 0 0 0 0 -1 0 -1 0 0 0
0 0 0 0 0 0 0 0 0 0 0 0 0 0 -2 0 0 0 0 0 0 0 0 0 0 0 0 -6 0 0 0 0 0 -1 -1 -1 0 0
0 0 0 0 0 0 0 0 0 0 0 -2 -3 -2 0 0 0 0 0 0 0 0 0 0 0 0 0 0 0 0 0 0 0 0 -9 -1 0 0
0 0 0 0 0 0 0 0 0 -1 -4 -1 0 -1 0 0 0 0 0 0 0 0 0 0 0 0 0 0 0 0 0 0 0 0 0 -2 0 0
0 0 0 0 0 0 0 0 0 0 0 0 0 0 0 0 0 0 0 0 0 0 0 0 0 0 0 0 0 0 0 0 0 0 0 -2 0 0
0 0 0 0 0 0 0 0 0 0 0 0 0 0 0 0 0 0 0 0 0 0 0 0 0 0 0 0 0 0 0 0 0 0 0 0 0 0
0 0 0 0 0 0 0 0 0 0 0 0 0 0 0 0 0 0 0 0 0 0 0 0 0 0 0 0 0 0 0 0 0 0 0 0 0 -1
0 0 0 0 0 0 0 0 0 0 0 0 0 0 0 0 0 0 0 0 0 0 0 0 0 0 0 0 0 0 0 0 0 0 0 0 0 0
0 0 0 0 0 0 0 0 0 0 0 0 0 0 0 0 0 0 0 0 0 0 0 0 0 0 0 0 0 0 0 0 0 0 0 0 0 0
0 0 0 0 0 0 0 0 0 0 0 0 0 0 0 0 0 0 0 0 0 0 0 0 0 0 0 0 0 0 0 0 0 0 0 0 0 0
0 0 0 0 0 0 0 0 0 0 0 0 0 0 0 0 0 0 0 0 0 0 0 0 0 0 0 0 0 0 0 -1 0 0 0 0 0 0
0 0 0 0 0 0 0 0 0 0 0 0 0 0 0 0 0 0 0 0 0 0 0 0 0 0 0 0 0 0 0 0 0 0 0 0 0 0
0 0 0 0 0 0 0 0 0 0 0 0 0 0 0 0 0 0 0 0 0 0 0 0 0 0 0 0 0 0 0 0 0 0 0 0 0 0
Wind_Speed
24 25 25 25 26 27 26 26 28 28 30 29 30 32 31 29 31 31 29 30 32 30 28 28 28 28 28 29 30 31 32 33 35 35 35 35 35 34
24 24 25 26 26 24 25 25 26 29 31 31 32 32 30 29 32 30 29 28 28 27 27 28 28 28 28 29 30 31 32 33 33 34 34 34 34 34
24 25 27 28 27 26 25 25 26 27 30 30 30 30 28 29 31 29 28 26 26 26 27 28 28 29 29 29 30 30 30 30 31 32 32 32 32 33
24 25 26 26 27 27 26 27 27 28 29 31 29 28 26 29 30 29 27 26 24 25 26 27 29 29 29 29 30 30 30 29 29 29 29 30 30 30
23 24 27 27 26 27 26 25 27 28 28 28 29 27 27 30 30 29 26 26 24 25 25 25 27 29 29 29 29 29 29 29 27 26 26 27 27 27
21 23 25 25 25 25 26 27 27 27 28 27 27 27 28 30 28 29 28 25 25 25 25 22 25 27 28 28 29 29 28 27 26 24 23 23 23 23
22 21 22 22 22 24 24 25 26 27 27 27 27 27 29 30 29 29 28 26 22 25 24 24 23 25 26 27 28 28 27 26 25 23 21 20 20 20
22 22 21 23 22 22 23 23 25 26 26 26 25 26 28 29 29 29 27 26 23 26 23 23 25 23 25 26 27 26 26 26 24 23 21 19 18 19
21 21 21 23 23 23 22 22 23 25 24 24 23 24 26 28 28 28 27 27 21 26 21 22 24 23 23 26 26 26 25 24 24 22 22 19 18 18
20 22 21 22 23 22 21 22 22 22 22 21 21 22 24 26 26 26 26 22 16 22 22 21 24 22 20 25 27 26 25 24 24 23 22 21 20 19
18 20 20 22 23 21 20 20 21 22 19 20 20 21 22 23 23 22 22 20 20 20 22 20 22 21 19 24 26 26 26 25 23 23 23 22 21 20
15 19 20 21 22 21 21 19 19 21 22 21 20 21 20 19 21 20 20 19 19 19 22 20 21 21 19 23 25 25 24 25 24 24 23 23 22 21
14 17 19 20 20 21 20 20 18 19 20 20 20 20 20 19 19 19 20 19 18 19 21 20 21 21 20 22 23 25 24 26 24 24 25 25 24 23
14 15 16 18 19 20 20 19 19 18 19 20 21 21 21 19 20 19 18 18 18 20 21 21 20 22 22 23 24 27 25 27 26 26 27 25 26 24
13 14 14 16 17 18 19 20 20 20 20 20 20 21 20 20 20 20 19 17 18 20 22 22 22 23 23 24 25 27 28 26 28 28 28 26 27 24
12 12 14 15 16 16 17 18 19 19 19 19 20 20 21 20 21 21 20 20 20 21 23 24 22 22 23 23 26 27 28 27 30 30 29 28 27 25
10 11 14 15 15 15 16 17 18 18 19 19 20 20 21 22 21 22 22 22 22 23 24 26 25 21 23 24 26 28 29 29 30 31 30 29 29 29
11 12 13 15 15 15 15 16 17 18 19 19 20 21 21 21 22 22 23 23 24 25 25 26 27 26 24 23 25 28 29 30 32 31 31 31 32 32
12 12 13 13 14 15 16 16 16 18 18 19 19 20 22 21 22 22 23 24 25 25 26 26 27 28 29 31 28 28 30 31 32 32 32 33 34 35
13 13 13 13 14 14 14 15 15 16 17 17 18 19 21 21 21 23 23 25 26 26 27 27 27 29 30 32 32 29 30 30 33 34 34 31 32 35
12 13 12 12 13 13 13 14 15 16 17 17 17 19 20 21 21 23 24 25 26 27 28 29 30 31 28 29 31 31 31 29 35 34 35 34 36 35
11 12 11 12 12 12 12 12 12 13 14 15 17 18 20 22 22 23 24 26 27 28 29 29 30 31 30 31 33 34 33 34 35 33 31 30 36 41
12 11 11 11 11 11 10 10 13 13 15 16 18 18 19 21 22 24 25 26 27 29 29 31 31 31 32 33 35 35 36 37 36 35 34 36 37 41
Wind_Direction
339 340 338 336 333 329 328 326 321 314 310 314 318 323 324 324 327 323 323 324 321 323 327 327 324 321 318 312 305 299 294 292 290 287 286 284 278 275
342 342 339 334 331 334 333 330 322 314 308 315 315 319 322 323 324 324 324 328 326 329 333 334 333 329 325 321 314 307 300 294 292 289 286 283 282 278
345 342 338 335 335 335 334 330 326 323 314 316 318 319 324 326 324 322 326 330 327 331 333 335 337 334 330 325 320 316 311 303 296 293 289 288 283 280
345 343 340 339 337 337 333 328 324 321 317 314 318 320 325 328 324 324 324 325 327 330 334 337 338 336 334 331 327 321 316 311 305 298 294 290 285 284
348 347 342 340 339 335 337 336 331 326 321 318 316 322 323 327 320 321 326 327 326 326 331 340 342 341 340 336 332 329 324 318 312 307 300 295 293 292
358 354 349 348 343 340 337 335 334 328 325 322 321 320 322 322 319 316 318 327 325 326 327 338 344 342 342 340 339 335 330 325 319 316 312 304 300 299
358 358 357 355 353 349 344 341 339 333 330 324 322 319 320 319 318 315 314 314 325 331 322 330 338 343 340 341 340 338 335 331 330 324 324 321 313 308
351 353 355 351 352 353 354 352 348 341 333 328 326 321 319 320 316 313 314 311 315 328 317 326 334 343 344 342 343 341 336 335 335 334 329 330 328 322
352 351 351 352 350 352 357 357 356 351 346 340 334 329 322 317 312 311 307 310 323 320 322 327 332 335 354 352 347 343 340 339 339 336 334 333 335 333
358 351 353 353 354 358 1 3 1 360 357 355 350 340 331 322 316 310 307 315 339 332 327 324 324 328 355 353 352 347 340 339 339 341 337 333 332 334
359 356 354 354 356 3 8 11 7 3 7 2 356 345 338 329 330 321 318 317 320 324 328 320 317 315 352 351 349 347 347 343 338 339 341 339 334 329
2 358 355 355 357 5 8 18 23 13 9 9 5 355 331 327 336 343 337 328 318 314 321 319 319 319 323 348 348 342 344 343 342 340 343 343 340 333
355 354 351 351 358 6 15 22 33 23 14 14 11 351 332 324 328 342 349 347 341 333 326 325 328 328 334 332 341 342 351 348 343 341 342 352 354 346
351 353 350 350 357 3 7 11 18 34 29 17 4 353 340 319 324 332 354 338 347 351 340 341 339 338 340 337 337 335 339 347 342 340 340 352 350 355
356 356 351 349 354 359 359 359 360 6 15 22 17 352 334 339 330 334 344 357 347 354 352 347 347 346 347 347 338 338 338 341 338 336 336 344 344 353
359 355 348 349 349 358 359 2 5 5 4 1 0 2 349 358 346 332 332 339 342 345 345 341 341 349 347 348 346 342 340 336 335 335 336 336 342 348
1 354 345 341 343 348 354 355 351 357 354 357 352 353 355 345 351 343 342 343 343 343 345 346 349 353 349 346 344 345 341 339 336 334 336 332 335 336
344 341 340 337 337 338 342 346 346 344 345 349 348 344 347 348 346 348 343 341 341 340 343 346 342 340 343 345 349 342 340 338 335 333 333 331 329 329
338 340 340 338 336 336 337 340 341 341 344 345 347 344 341 345 345 346 346 342 339 340 342 344 344 338 332 329 331 340 335 334 333 331 331 329 325 324
331 334 333 334 334 336 337 339 342 343 342 346 347 347 342 345 345 343 345 342 338 339 339 341 342 340 332 329 328 335 336 335 333 329 328 329 327 326
329 331 332 334 335 337 338 337 339 339 339 342 346 345 341 342 344 343 342 340 339 338 335 336 336 334 335 334 329 330 332 332 330 327 326 326 322 324
331 330 332 332 332 335 337 339 341 342 342 341 341 342 339 337 340 340 341 337 336 336 335 337 337 336 335 331 328 326 327 329 328 327 330 328 323 317
329 328 329 329 330 333 335 335 333 336 336 336 335 339 338 336 339 338 338 337 336 334 335 333 335 334 330 328 326 326 325 325 327 325 327 326 324 321